Caslav, Czech Republic

5:59 PM CEST on April 24, 2017 (GMT +0200)
Caslav

Weather History for LKCV - May, 2014

Change the Weather History Date:

Sunday, May 11, 2014

  Actual Average Record
Temperature  
Mean Temperature 56 °F -  
Max Temperature 62 °F - - ()
Min Temperature 50 °F - - ()
Degree Days  
Heating Degree Days 9    
Growing Degree Days 6 (Base 50)    
Moisture  
Dew Point 50 °F    
Average Humidity 76    
Maximum Humidity 94    
Minimum Humidity 50    
Precipitation  
Precipitation 0.20 in - - ()
Sea Level Pressure  
Sea Level Pressure 29.74 in    
Wind  
Wind Speed 6 mph ()    
Max Wind Speed 16 mph    
Max Gust Speed 26 mph    
Visibility 8.4 miles    
Events Rain , Thunderstorm    
T = Trace of Precipitation, MM = Missing Value Source: Averaged Metar Reports

Daily Weather History Graph

Daily Weather History Graph

Search for Another Location

Airport or City:

Trip Planner

Search our weather history database for the weather conditions in past years. The results will help you decide how hot, cold, wet, or windy it might be!

Date:

Astronomy

May. 11, 2014 Rise Set
Actual Time 5:18 AM CEST 8:31 PM CEST
Civil Twilight 4:40 AM CEST 9:10 PM CEST
Nautical Twilight 3:50 AM CEST 10:01 PM CEST
Astronomical Twilight 2:45 AM CEST 11:07 PM CEST
Moon 4:50 PM CEST (5/11) 3:37 AM CEST (5/11)
Length of Visible Light 16h 29m
Length of Day
15h 12m
Waxing Gibbous, 87% of the Moon is Illuminated
May 11
Waxing Gibbous
May 14
Full
May 21
Last Quarter
May 28
New
Jun 5
First Quarter

Hourly Weather History & Observations

Time (CEST) Temp. Dew Point Humidity Pressure Visibility Wind Dir Wind Speed Gust Speed Precip Events Conditions
12:00 AM 57 °F 54 °F 84% 29.79 in 9 mi South 4.5 mph - - Rain Light Rain
12:00 AM 57.2 °F 53.6 °F 88% 29.80 in 6.2 mi South 5.8 mph - N/A Rain Light Rain
1:00 AM 56 °F 54 °F 90% 29.78 in 9 mi SSE 2.2 mph - - Rain Light Rain
1:00 AM 57.2 °F 53.6 °F 88% 29.77 in 6.2 mi South 2.3 mph - N/A Rain Light Rain
2:00 AM 56 °F 54 °F 90% 29.77 in 9 mi South 4.5 mph - - Rain Light Rain
2:00 AM 55.4 °F 53.6 °F 94% 29.77 in 6.2 mi South 4.6 mph - N/A Rain Light Rain
3:00 AM 56 °F 54 °F 89% 29.73 in 9 mi SE 4.5 mph - - Rain Light Rain
3:00 AM 55.4 °F 53.6 °F 94% 29.74 in 6.2 mi SE 4.6 mph - N/A Rain Light Rain
4:00 AM 56 °F 53 °F 85% 29.73 in 9 mi South 6.7 mph - - Rain Light Rain
4:00 AM 55.4 °F 53.6 °F 94% 29.71 in 6.2 mi South 5.8 mph - N/A Rain Light Rain
5:00 AM 56 °F 53 °F 86% 29.72 in 9 mi South 4.5 mph - - Rain Light Rain
5:00 AM 55.4 °F 53.6 °F 94% 29.71 in 6.2 mi South 4.6 mph - N/A Rain Light Rain
6:00 AM 56 °F 52 °F 83% 29.74 in 12 mi WSW 8.9 mph - -   Overcast
6:00 AM 55.4 °F 51.8 °F 88% 29.74 in 6.2 mi WSW 6.9 mph - N/A   Overcast
7:00 AM 56 °F 52 °F 82% 29.74 in 12 mi SSW 6.7 mph - -   Mostly Cloudy
7:00 AM 57.2 °F 51.8 °F 82% 29.74 in - SW 8.1 mph - N/A   Clear
8:00 AM 58 °F 52 °F 74% 29.75 in 12 mi SW 6.7 mph - -   Partly Cloudy
8:00 AM 57.2 °F 51.8 °F 82% 29.74 in - SW 6.9 mph - N/A   Clear
9:00 AM 58 °F 47 °F 58% 29.76 in 12 mi West 11.2 mph - -   Scattered Clouds
9:00 AM 57.2 °F 46.4 °F 67% 29.74 in 6.2 mi West 11.5 mph - N/A   Mostly Cloudy
10:00 AM 59 °F 47 °F 54% 29.77 in 12 mi WSW 8.9 mph - -   Scattered Clouds
10:00 AM 59.0 °F 46.4 °F 63% 29.77 in 6.2 mi WSW 9.2 mph - N/A   Mostly Cloudy
11:00 AM 60 °F 47 °F 53% 29.75 in 12 mi SSW 8.9 mph - -   Mostly Cloudy
11:00 AM 60.8 °F 48.2 °F 63% 29.74 in 6.2 mi SSW 8.1 mph - N/A   Mostly Cloudy
12:00 PM 61 °F 48 °F 53% 29.74 in 12 mi West 8.9 mph - -   Mostly Cloudy
12:00 PM 60.8 °F 48.2 °F 63% 29.74 in 6.2 mi West 9.2 mph - N/A   Mostly Cloudy
12:21 PM 59.0 °F 48.2 °F 67% 29.74 in 6.2 mi Variable 8.1 mph - N/A Rain Rain Showers
12:38 PM 55.4 °F 50.0 °F 82% 29.74 in 6.2 mi West 16.1 mph 26.5 mph N/A   Overcast
1:00 PM 55 °F 51 °F 83% 29.76 in 9 mi West 8.9 mph - - Rain Light Rain Showers
1:00 PM 55.4 °F 51.8 °F 88% 29.74 in 6.2 mi West 11.5 mph - N/A   Overcast
2:00 PM 57 °F 49 °F 68% 29.73 in 12 mi WSW 6.7 mph - -   Partly Cloudy
2:00 PM 57.2 °F 50.0 °F 77% 29.71 in 6.2 mi West 9.2 mph - N/A   Overcast
3:00 PM 60 °F 47 °F 52% 29.73 in 12 mi West 15.7 mph - -   Partly Cloudy
3:00 PM 60.8 °F 48.2 °F 63% 29.71 in 6.2 mi West 12.7 mph - N/A   Mostly Cloudy
4:00 PM 59 °F 46 °F 51% 29.71 in 12 mi West 11.2 mph - -   Overcast
4:00 PM 59.0 °F 44.6 °F 59% 29.71 in - West 10.4 mph - N/A   Clear
5:00 PM 58 °F 46 °F 53% 29.71 in 12 mi WSW 8.9 mph - -   Scattered Clouds
5:00 PM 59.0 °F 44.6 °F 59% 29.71 in 6.2 mi West 10.4 mph - N/A   Mostly Cloudy
6:00 PM 59 °F 45 °F 50% 29.71 in 12 mi WSW 4.5 mph - -   Scattered Clouds
6:00 PM 59.0 °F 44.6 °F 59% 29.71 in 6.2 mi SW 3.5 mph - N/A   Mostly Cloudy
6:22 PM 59.0 °F 48.2 °F 67% 29.71 in 6.2 mi WSW 2.3 mph - N/A Rain , Thunderstorm Light Thunderstorms and Rain
6:31 PM 55.4 °F 46.4 °F 72% 29.71 in 5.0 mi WSW 10.4 mph 26.5 mph N/A Rain , Thunderstorm Thunderstorms and Rain
7:00 PM 54 °F 49 °F 77% 29.72 in 6 mi SW 2.2 mph - - Thunderstorm Thunderstorm
7:00 PM 55.4 °F 48.2 °F 77% 29.71 in 6.2 mi Variable 2.3 mph - N/A Thunderstorm Mostly Cloudy
7:11 PM 55.4 °F 50.0 °F 82% 29.71 in 6.2 mi Calm Calm - N/A   Mostly Cloudy
8:00 PM 54 °F 49 °F 76% 29.75 in 12 mi SSW 4.5 mph - - Thunderstorm Light Thunderstorm
8:00 PM 55.4 °F 48.2 °F 77% 29.74 in 6.2 mi SW 4.6 mph - N/A   Mostly Cloudy
9:00 PM 53 °F 50 °F 86% 29.74 in 12 mi SSW 6.7 mph - -   Scattered Clouds
9:00 PM 53.6 °F 50.0 °F 88% 29.74 in 6.2 mi SSW 6.9 mph - N/A   Mostly Cloudy
10:00 PM 51 °F 49 °F 88% 29.74 in 9 mi SW 6.7 mph - -   Scattered Clouds
10:00 PM 51.8 °F 48.2 °F 88% 29.74 in - SW 5.8 mph - N/A   Clear
11:00 PM 50 °F 47 °F 88% 29.76 in 9 mi SW 2.2 mph - -   Clear
11:00 PM 50.0 °F 48.2 °F 94% 29.74 in - Variable 2.3 mph - N/A   Clear